Location: La Chapelle
(48.3135°N, 1.3085°W)
Time: 07:50:35
(UTC+00:00)

SL-4 R/B - Pass Details

Date: 03 March 2021
Orbit: 428 x 663 km, 51.6° (Epoch: 11 April)

Event Time Altitude Azimuth Distance (km) Brightness Sun altitude
Rises 19:49:18 0° 291° (WNW) 2,471 6.9 -20.1°
Reaches altitude 10° 19:51:28 10° 292° (WNW) 1,571 5.5 -20.4°
Enters shadow 19:54:48 78° 327° (NNW) 450 1.5 -21.0°
